Flag for Mexico Weather past 2 weeks in Guadalajara, Jalisco, Mexico

Now
73 °F

Passing clouds.


Feels Like: 77 °F
Forecast: 59 / 85 °F
Wind: 3 mph from Southeast

Location: Don Miguel / Guadalaj

Current Time: May 25, 2015 at 1:24:49 AM

Latest Report: May 24, 2015 at 9:48 PM


Visibility: 10 mi

Pressure: 29.77 "Hg

Humidity: 36%

Dew point: 45 °F

Location of GuadalajaraLocation

Historic Weather in Guadalajara — Graph

°F

Guadalajara temperature yesterday

Maximum temperature yesterday: 88 °F (at 2:45 PM)
Minimum temperature yesterday: 63 °F (at 7:49 AM)
Average temperature yesterday: 75 °F

Past Weeks' High & Low Weather Summary

 TemperatureHumidityPressure
High93 °F (May 11, 3:50 PM)88% (May 13, 12:54 AM)30.28 "Hg (May 13, 12:54 AM)
Low55 °F (May 14, 6:54 AM)14% (May 10, 3:56 PM)29.59 "Hg (May 11, 3:50 PM)
Average75 °F44%30.03 "Hg
* Reported May 9 9:55 PM — May 24 9:48 PM, Guadalajara, Weather by CustomWeather, © 2015

Note: Actual official high and low records may vary slightly from our data, if they occured in-between our weather recording intervals... More about our weather records

Advertising

Guadalajara weather history for previous 24 hours

 ConditionsComfort  
Time TempWeatherWind HumidityBarometerVisibility
9:48 PM
Sun, May 24
73 °FPassing clouds.3 mph36%29.77 "Hg10 mi
8:54 PM75 °FPartly sunny.7 mph47%30.12 "Hg10 mi
7:52 PM79 °FBroken clouds.10 mph26%30.08 "Hg10 mi
5:52 PM84 °FPartly sunny.18 mph27%30.06 "Hg10 mi
4:49 PM86 °FPartly sunny.9 mph24%30.07 "Hg10 mi
3:45 PM88 °FPartly sunny.5 mph22%29.69 "Hg10 mi
2:45 PM88 °FPartly sunny.9 mph24%30.14 "Hg10 mi
1:49 PM82 °FPartly sunny.3 mph30%30.16 "Hg10 mi
12:54 PM82 °FScattered clouds.5 mph32%29.79 "Hg10 mi
11:47 AM79 °FScattered clouds.5 mph37%30.21 "Hg8 mi
10:51 AM75 °FScattered clouds.6 mph47%30.22 "Hg8 mi
9:53 AM72 °FSunny.5 mph57%29.87 "Hg7 mi
8:51 AM68 °FScattered clouds.No wind69%30.22 "Hg7 mi
7:49 AM63 °FPassing clouds.No wind77%30.20 "Hg6 mi
6:45 AM66 °FPassing clouds.6 mph73%29.85 "Hg8 mi
5:55 AM66 °FPassing clouds.5 mph73%30.19 "Hg10 mi
5:03 AM66 °FPassing clouds.No wind73%30.18 "Hg10 mi
3:53 AM68 °FPassing clouds.7 mph78%29.81 "Hg10 mi
2:51 AM68 °FPassing clouds.7 mph73%30.20 "Hg10 mi
1:54 AM70 °FPassing clouds.14 mph73%30.21 "Hg10 mi
1:08 AM70 °FPassing clouds.10 mph69%30.22 "Hg10 mi
Weather by CustomWeather, © 2015

See weather overviewHow to use our weather pages